Home > Weather > Saint-Petersburg > Past weeks

Flag for Russia Weather for the Past 2 Weeks in Saint-Petersburg, Russia

Now
43 °F

Sprinkles. Mostly cloudy.


Feels Like: 36 °F
Forecast: 42 / 54 °F
Wind: 13 mph from Northwest

Location: St. Petersburg

Current Time: Apr 29, 2016 at 9:23:12 AM

Latest Report: Apr 29, 2016 at 8:30 AM


Visibility: N/A

Pressure: 30.24 "Hg

Humidity: 93%

Dew Point: 41 °F

Location of Saint-PetersburgLocation

Historic Weather in Saint-Petersburg — Graph

°F

Saint-Petersburg Temperature Yesterday

Maximum temperature yesterday: 66 °F (at 4:30 PM)
Minimum temperature yesterday: 45 °F (at 4:30 AM)
Average temperature yesterday: 55 °F

High & Low Weather Summary for the Past Weeks

 TemperatureHumidityPressure
High66 °F (Apr 28, 4:30 PM)100% (Apr 14, 4:30 PM)30.24 "Hg (Apr 14, 4:30 PM)
Low28 °F (Apr 16, 2:30 AM)29% (Apr 17, 3:30 PM)29.47 "Hg (Apr 18, 5:00 AM)
Average44 °F78%29.73 "Hg
* Reported Apr 14 7:00 AM — Apr 29 7:30 AM, Saint-Petersburg, Weather by CustomWeather, © 2016

Note: Actual official high and low records may vary slightly from our data, if they occured in-between our weather recording intervals... More about our weather records

Advertising

Saint-Petersburg Weather History for the Previous 24 Hours

Scroll right to see more
 ConditionsComfort  
Time TempWeatherWind HumidityBarometerVisibility
7:30 AM
Fri, Apr 29
43 °FSprinkles. Mostly cloudy.13 mph93%30.24 "HgN/A
7:00 AM45 °FSprinkles. Mostly cloudy.13 mph93%30.21 "HgN/A
6:30 AM45 °FSprinkles. Mostly cloudy.10 mph93%30.18 "HgN/A
5:30 AM46 °FSprinkles. Mostly cloudy.13 mph93%30.15 "Hg5 mi
5:00 AM50 °FLight rain. Partly sunny.1 mph94%30.15 "HgN/A
4:30 AM50 °FLight rain. Partly cloudy.3 mph94%30.12 "HgN/A
4:00 AM52 °FLight rain. Partly cloudy.3 mph88%30.12 "HgN/A
3:30 AM54 °FLight rain. Passing clouds.10 mph82%30.09 "HgN/A
3:00 AM55 °FLight rain. Passing clouds.10 mph77%30.09 "HgN/A
2:00 AM55 °FLight rain. Passing clouds.13 mph77%30.07 "HgN/A
1:30 AM55 °FLight rain. Passing clouds.6 mph72%30.07 "HgN/A
1:00 AM57 °FLight rain. Clear.8 mph59%30.04 "HgN/A
12:30 AM57 °FClear.15 mph59%30.04 "Hg10 mi
12:00 AM57 °FClear.13 mph55%30.04 "Hg10 mi
11:30 PM
Thu, Apr 28
57 °FClear.13 mph55%30.01 "Hg10 mi
11:00 PM59 °FClear.13 mph51%30.01 "Hg10 mi
10:30 PM59 °FClear.13 mph51%30.01 "Hg10 mi
10:00 PM59 °FClear.13 mph55%30.01 "Hg10 mi
9:30 PM59 °FClear.13 mph55%30.01 "Hg10 mi
9:00 PM59 °FClear.13 mph55%30.01 "Hg10 mi
8:30 PM61 °FSunny.10 mph52%29.98 "Hg10 mi
8:00 PM61 °FBroken clouds.13 mph55%29.98 "HgN/A
7:30 PM63 °FBroken clouds.15 mph52%29.98 "HgN/A
7:00 PM63 °FBroken clouds.17 mph56%29.98 "HgN/A
6:30 PM63 °FBroken clouds.13 mph59%29.98 "HgN/A
6:00 PM63 °FBroken clouds.15 mph56%29.98 "HgN/A
5:30 PM63 °FBroken clouds.20 mph59%29.98 "HgN/A
5:00 PM64 °FBroken clouds.13 mph56%29.98 "HgN/A
4:30 PM66 °FScattered clouds.20 mph52%29.98 "HgN/A
4:00 PM64 °FScattered clouds.15 mph60%29.98 "HgN/A
3:30 PM63 °FPartly sunny.15 mph64%29.98 "HgN/A
3:00 PM63 °FPartly sunny.15 mph68%30.01 "HgN/A
2:30 PM61 °FPartly sunny.17 mph68%30.01 "HgN/A
2:00 PM61 °FPartly sunny.17 mph77%30.01 "HgN/A
1:30 PM63 °FPartly sunny.10 mph68%30.01 "HgN/A
1:00 PM61 °FPartly sunny.10 mph72%30.01 "HgN/A
12:30 PM59 °FBroken clouds.10 mph77%30.01 "HgN/A
12:00 PM57 °FPartly sunny.6 mph88%30.01 "HgN/A
11:30 AM54 °FMostly cloudy.8 mph88%30.04 "HgN/A
10:30 AM50 °FLow clouds.8 mph94%30.04 "HgN/A
Weather by CustomWeather, © 2016

See weather overviewHow to use our weather pages